Simultaneous Nadir Overpasses (SNOs) Predictions

Prediction of SNOs between METOP-B and NOAA-19 Satellite Orbit:

Table of predicted SNOs for the next 14.0 days since TLE Epoch: 12/14/2018
Index Date (METOP-B) Time (METOP-B) Lat,Lon (METOP-B) SZA (METOP-B ) Date (NOAA-19) Time (NOAA-19) Lat,Lon (NOAA-19) SZA (NOAA-19 ) Distance(km) Time Diff (sec)
1 12/19/2018 21:55:49 79.03,-134.87 102.73 12/19/2018 21:54:40 79.04,-137.21 102.63 49.60 69
2 12/19/2018 22:46:35 -78.86, 31.29 77.50 12/19/2018 22:45:30 -78.88, 31.28 77.49 2.57 65
3 12/19/2018 23:37:15 78.87,-161.28 102.53 12/19/2018 23:36:36 78.87,-161.43 102.51 3.22 39
4 12/20/2018 00:27:57 -78.84, 5.87 77.51 12/20/2018 00:27:30 -78.85, 6.03 77.51 3.53 27
5 12/20/2018 01:18:37 78.86, 173.29 102.51 12/20/2018 01:18:36 78.84, 173.32 102.49 2.32 1
6 12/20/2018 02:09:19 -78.83, -19.56 77.53 12/20/2018 02:09:31 -78.85, -19.48 77.51 2.53 12
7 12/20/2018 02:59:59 78.85, 147.87 102.50 12/20/2018 03:00:37 78.84, 147.81 102.49 1.45 38
8 12/20/2018 03:50:41 -78.82, -44.98 77.54 12/20/2018 03:51:32 -78.85, -44.98 77.50 3.26 51
9 12/20/2018 04:41:24 78.72, 121.73 102.34 12/20/2018 04:42:36 78.77, 122.81 102.45 24.15 72




NCC Satellite Simultaneous Nadir Overpasses (SNOs) Prediction Service
